TimeCDT,TemperatureF,Dew PointF,Humidity,Sea Level PressureIn,VisibilityMPH,Wind Direction,Wind SpeedMPH,Gust SpeedMPH,PrecipitationIn,Events,Conditions,WindDirDegrees,DateUTC
12:52 AM,37.9,35.1,89,30.24,7.0,Calm,Calm,-,N/A,,Clear,0,2012-10-08 05:52:00
1:07 AM,35.6,33.8,93,30.22,2.0,Calm,Calm,-,N/A,,Clear,0,2012-10-08 06:07:00
1:18 AM,35.6,33.8,93,30.22,6.0,Calm,Calm,-,N/A,,Clear,0,2012-10-08 06:18:00
1:52 AM,37.0,35.1,93,30.24,10.0,Calm,Calm,-,N/A,,Clear,0,2012-10-08 06:52:00
2:52 AM,34.0,32.0,92,30.23,7.0,SSW,4.6,-,N/A,,Clear,210,2012-10-08 07:52:00
3:52 AM,33.1,30.9,92,30.22,8.0,SSW,3.5,-,N/A,,Clear,210,2012-10-08 08:52:00
4:52 AM,33.1,30.9,92,30.20,8.0,Calm,Calm,-,N/A,,Clear,0,2012-10-08 09:52:00
5:52 AM,30.9,28.9,92,30.22,8.0,SSW,5.8,-,N/A,,Clear,200,2012-10-08 10:52:00
6:52 AM,32.0,30.0,92,30.22,6.0,South,3.5,-,N/A,,Clear,170,2012-10-08 11:52:00
7:52 AM,33.1,30.9,92,30.22,10.0,SE,5.8,-,N/A,,Clear,140,2012-10-08 12:52:00
8:52 AM,37.9,35.1,89,30.23,10.0,South,4.6,-,N/A,,Clear,190,2012-10-08 13:52:00
9:52 AM,46.9,37.0,68,30.23,10.0,SSW,10.4,-,N/A,,Clear,210,2012-10-08 14:52:00
10:52 AM,51.8,33.8,50,30.20,10.0,SSW,12.7,-,N/A,,Clear,200,2012-10-08 15:52:00
11:52 AM,57.0,34.0,42,30.19,10.0,South,11.5,-,N/A,,Clear,190,2012-10-08 16:52:00
12:52 PM,60.1,36.0,41,30.16,10.0,South,13.8,21.9,N/A,,Clear,180,2012-10-08 17:52:00
1:52 PM,61.0,35.1,38,30.13,10.0,SSW,13.8,21.9,N/A,,Clear,210,2012-10-08 18:52:00
2:52 PM,63.0,35.1,35,30.09,10.0,SSW,13.8,23.0,N/A,,Partly Cloudy,200,2012-10-08 19:52:00
3:52 PM,64.0,35.1,34,30.07,10.0,South,13.8,-,N/A,,Mostly Cloudy,190,2012-10-08 20:52:00
4:52 PM,62.1,35.1,37,30.05,10.0,SSW,10.4,-,N/A,,Mostly Cloudy,200,2012-10-08 21:52:00
5:52 PM,60.1,35.1,39,30.03,10.0,South,10.4,-,N/A,,Mostly Cloudy,170,2012-10-08 22:52:00
6:52 PM,57.9,36.0,44,30.02,10.0,South,9.2,-,N/A,,Mostly Cloudy,170,2012-10-08 23:52:00
7:52 PM,52.0,37.9,59,30.03,10.0,South,6.9,-,N/A,,Mostly Cloudy,190,2012-10-09 00:52:00
8:52 PM,50.0,37.9,63,30.04,10.0,South,8.1,-,N/A,,Mostly Cloudy,190,2012-10-09 01:52:00
9:52 PM,48.0,37.9,68,30.04,10.0,South,8.1,-,N/A,,Scattered Clouds,170,2012-10-09 02:52:00
10:52 PM,52.0,36.0,54,30.02,10.0,South,12.7,-,N/A,,Mostly Cloudy,180,2012-10-09 03:52:00
11:52 PM,50.0,37.0,61,30.01,10.0,South,12.7,-,N/A,,Mostly Cloudy,170,2012-10-09 04:52:00